Weather History for Thermal, CA

Change the Weather History Date:

Saturday, January 12, 2013

  Actual Average Record
Temperature  
Mean Temperature 44 °F 54 °F  
Max Temperature 58 °F 71 °F 85 °F (1983)
Min Temperature 30 °F 38 °F 23 °F (1962)
Degree Days  
Heating Degree Days 21 11  
Month to date heating degree days 174 134  
Since 1 July heating degree days 612 672  
Cooling Degree Days 0 0  
Month to date cooling degree days 0 0  
Year to date cooling degree days 0 0  
Moisture  
Dew Point 19 °F    
Average Humidity 39    
Maximum Humidity 64    
Minimum Humidity 14    
Precipitation  
Precipitation T in 0.03 in 0.14 in (1993)
Month to date precipitation T 0.28  
Year to date precipitation T 0.28  
Since 1 July precipitation 2.18 1.66  
Snow  
Snow 0.00 in - - ()
Month to date snowfall 0.0  
Year to date snowfall 0.0  
Since 1 July snowfall 0.0  
Snow Depth 0.00 in    
Sea Level Pressure  
Sea Level Pressure 30.10 in    
Wind  
Wind Speed 5 mph (NNW)    
Max Wind Speed 17 mph    
Max Gust Speed 23 mph    
Visibility 10 miles    
Events      
T = Trace of Precipitation, MM = Missing Value Source: NWS Daily Summary

Daily Weather History Graph

Daily Weather History Graph

Search for Another Location

Airport:

Trip Planner

Search our weather history database for the weather conditions in past years. The results will help you decide how hot, cold, wet, or windy it might be!

Date:

Astronomy

Jan. 12, 2013 Rise Set
Actual Time 6:49 AM PST 4:57 PM PST
Civil Twilight 6:22 AM PST 5:24 PM PST
Nautical Twilight 5:51 AM PST 5:54 PM PST
Astronomical Twilight 5:21 AM PST 6:24 PM PST
Moon 7:16 AM PST (1/12) 6:24 PM PST (1/12)
Length of Visible Light 11h 01m
Length of Day
10h 07m
New Moon, 2% of the Moon is Illuminated
Jan 12
New Moon
Jan 18
First Quarter
Jan 26
Full
Feb 3
Last Quarter
Feb 9
New

Hourly Weather History & Observations

Time (PST) Temp. Windchill Dew Point Humidity Pressure Visibility Wind Dir Wind Speed Gust Speed Precip Events Conditions
12:52 AM 46.0 °F 43.9 °F 23.0 °F 40% 30.04 in 10.0 mi NNE 4.6 mph - N/A   Overcast
1:52 AM 48.0 °F - 24.1 °F 39% 30.05 in 10.0 mi NNW 10.4 mph - N/A   Overcast
2:52 AM 46.9 °F - 25.0 °F 42% 30.06 in 10.0 mi WNW 6.9 mph - N/A   Overcast
3:52 AM 46.9 °F - 27.0 °F 46% 30.09 in 10.0 mi NNE 8.1 mph - 0.00 in   Overcast
4:52 AM 43.0 °F - 28.0 °F 56% 30.09 in 10.0 mi Calm Calm - N/A   Partly Cloudy
6:52 AM 37.0 °F 32.4 °F 27.0 °F 67% 30.13 in 10.0 mi NNE 5.8 mph - N/A   Clear
7:52 AM 39.0 °F 34.0 °F 26.1 °F 60% 30.15 in 10.0 mi West 6.9 mph - N/A   Clear
10:52 AM 54.0 °F - 15.1 °F 22% 30.15 in 10.0 mi Variable 3.5 mph - N/A   Clear
11:52 AM 55.9 °F - 12.0 °F 18% 30.12 in 10.0 mi Variable 3.5 mph - N/A   Clear
12:52 PM 55.9 °F - 10.0 °F 16% 30.09 in 10.0 mi North 4.6 mph - N/A   Clear
1:52 PM 57.0 °F - 9.0 °F 15% 30.09 in 10.0 mi SSW 4.6 mph - N/A   Clear
2:52 PM 57.9 °F - 9.0 °F 14% 30.08 in 10.0 mi Calm Calm - N/A   Clear
3:52 PM 55.9 °F - 15.1 °F 20% 30.08 in 10.0 mi SE 9.2 mph - N/A   Clear
4:52 PM 48.9 °F - 16.0 °F 27% 30.08 in 10.0 mi SSE 6.9 mph - N/A   Clear
5:52 PM 42.1 °F 39.2 °F 18.0 °F 38% 30.09 in 10.0 mi ESE 4.6 mph - N/A   Clear
7:52 PM 33.1 °F - 16.0 °F 50% 30.10 in 10.0 mi Calm Calm - N/A   Clear
8:52 PM 35.1 °F 31.0 °F 19.0 °F 52% 30.11 in 10.0 mi West 4.6 mph - N/A   Clear
10:52 PM 33.1 °F 30.0 °F 19.0 °F 56% 30.14 in 10.0 mi NNW 3.5 mph - N/A   Clear
11:52 PM 30.9 °F 27.5 °F 19.0 °F 61% 30.13 in 10.0 mi North 3.5 mph - N/A   Clear